Time,TemperatureF,DewpointF,PressureIn,WindDirection,WindDirectionDegrees,WindSpeedMPH,WindSpeedGustMPH,Humidity,HourlyPrecipIn,Conditions,Clouds,dailyrainin,SoftwareType,DateUTC
2013-04-23 00:09:00,21.5,20.0,30.25,NE,51,0.0,-999.0,93,-99.99,,,0.02,weatherlink.com 1.10,2013-04-23 06:09:00,
2013-04-23 00:25:00,21.8,20.0,30.24,NE,51,0.0,-999.0,92,-99.99,,,0.03,weatherlink.com 1.10,2013-04-23 06:25:00,
2013-04-23 00:40:00,22.3,20.0,30.24,NE,51,0.0,-999.0,92,-99.99,,,0.04,weatherlink.com 1.10,2013-04-23 06:40:00,
2013-04-23 00:55:00,22.3,20.0,30.23,NE,51,2.0,-999.0,91,-99.99,,,0.06,weatherlink.com 1.10,2013-04-23 06:55:00,
2013-04-23 01:10:00,22.0,20.0,30.24,ENE,64,2.0,-999.0,91,-99.99,,,0.07,weatherlink.com 1.10,2013-04-23 07:10:00,
2013-04-23 01:25:00,22.0,20.0,30.24,ENE,64,0.0,-999.0,91,-99.99,,,0.07,weatherlink.com 1.10,2013-04-23 07:25:00,
2013-04-23 01:39:00,22.0,20.0,30.23,ENE,65,0.0,-999.0,91,-99.99,,,0.08,weatherlink.com 1.10,2013-04-23 07:39:00,
2013-04-23 01:54:00,22.0,20.0,30.23,ENE,71,2.0,-999.0,91,-99.99,,,0.08,weatherlink.com 1.10,2013-04-23 07:54:00,
2013-04-23 02:09:00,21.9,20.0,30.23,ENE,71,1.0,-999.0,91,-99.99,,,0.09,weatherlink.com 1.10,2013-04-23 08:09:00,
2013-04-23 02:24:00,22.0,20.0,30.22,ENE,71,0.0,-999.0,91,-99.99,,,0.10,weatherlink.com 1.10,2013-04-23 08:24:00,
2013-04-23 02:39:00,21.7,19.0,30.20,East,86,3.0,-999.0,90,-99.99,,,0.11,weatherlink.com 1.10,2013-04-23 08:39:00,
2013-04-23 02:54:00,21.5,19.0,30.20,East,98,1.0,-999.0,91,-99.99,,,0.12,weatherlink.com 1.10,2013-04-23 08:54:00,
2013-04-23 03:09:00,21.4,19.0,30.20,ESE,112,1.0,-999.0,91,-99.99,,,0.13,weatherlink.com 1.10,2013-04-23 09:09:00,
2013-04-23 03:25:00,21.1,19.0,30.20,East,100,1.0,-999.0,90,-99.99,,,0.14,weatherlink.com 1.10,2013-04-23 09:25:00,
2013-04-23 03:39:00,21.1,19.0,30.20,East,100,0.0,-999.0,91,-99.99,,,0.14,weatherlink.com 1.10,2013-04-23 09:39:00,
2013-04-23 03:54:00,20.9,19.0,30.20,NE,50,2.0,-999.0,90,-99.99,,,0.15,weatherlink.com 1.10,2013-04-23 09:54:00,
2013-04-23 04:10:00,20.1,18.0,30.20,NNE,22,2.0,-999.0,91,-99.99,,,0.16,weatherlink.com 1.10,2013-04-23 10:10:00,
2013-04-23 04:25:00,20.2,18.0,30.20,NNE,32,3.0,-999.0,91,-99.99,,,0.17,weatherlink.com 1.10,2013-04-23 10:25:00,
2013-04-23 04:40:00,20.1,18.0,30.20,NE,44,0.0,-999.0,92,-99.99,,,0.18,weatherlink.com 1.10,2013-04-23 10:40:00,
2013-04-23 04:55:00,20.1,18.0,30.20,NE,44,0.0,-999.0,91,-99.99,,,0.18,weatherlink.com 1.10,2013-04-23 10:55:00,
2013-04-23 05:09:00,20.3,18.0,30.20,NE,44,0.0,-999.0,91,-99.99,,,0.19,weatherlink.com 1.10,2013-04-23 11:09:00,
2013-04-23 05:24:00,20.3,18.0,30.19,NNE,13,2.0,-999.0,90,-99.99,,,0.20,weatherlink.com 1.10,2013-04-23 11:24:00,
2013-04-23 05:39:00,19.9,18.0,30.19,NNE,24,3.0,-999.0,91,-99.99,,,0.21,weatherlink.com 1.10,2013-04-23 11:39:00,
2013-04-23 05:54:00,19.8,18.0,30.20,NNE,30,4.0,-999.0,91,-99.99,,,0.22,weatherlink.com 1.10,2013-04-23 11:54:00,
2013-04-23 06:09:00,19.5,17.0,30.20,NNE,33,4.0,-999.0,91,-99.99,,,0.24,weatherlink.com 1.10,2013-04-23 12:09:00,
2013-04-23 06:24:00,19.6,17.0,30.20,NNE,30,2.0,-999.0,91,-99.99,,,0.25,weatherlink.com 1.10,2013-04-23 12:24:00,
2013-04-23 06:39:00,19.7,18.0,30.21,NE,40,2.0,-999.0,91,-99.99,,,0.26,weatherlink.com 1.10,2013-04-23 12:39:00,
2013-04-23 06:54:00,18.7,16.0,30.21,NNE,22,7.0,-999.0,89,-99.99,,,0.27,weatherlink.com 1.10,2013-04-23 12:54:00,
2013-04-23 07:09:00,17.7,15.0,30.22,NNE,12,6.0,-999.0,89,-99.99,,,0.29,weatherlink.com 1.10,2013-04-23 13:09:00,
2013-04-23 07:24:00,17.4,15.0,30.22,NNE,15,4.0,-999.0,90,-99.99,,,0.31,weatherlink.com 1.10,2013-04-23 13:24:00,
2013-04-23 07:40:00,17.9,16.0,30.23,NNE,13,2.0,-999.0,90,-99.99,,,0.32,weatherlink.com 1.10,2013-04-23 13:40:00,
2013-04-23 07:55:00,18.6,16.0,30.23,North,5,2.0,-999.0,89,-99.99,,,0.33,weatherlink.com 1.10,2013-04-23 13:55:00,
2013-04-23 08:09:00,18.9,16.0,30.23,North,360,2.0,-999.0,89,-99.99,,,0.34,weatherlink.com 1.10,2013-04-23 14:09:00,
2013-04-23 08:24:00,20.0,17.0,30.23,NNE,25,2.0,-999.0,88,-99.99,,,0.34,weatherlink.com 1.10,2013-04-23 14:24:00,
2013-04-23 08:39:00,20.6,18.0,30.23,NE,44,3.0,-999.0,88,-99.99,,,0.34,weatherlink.com 1.10,2013-04-23 14:39:00,
2013-04-23 08:54:00,20.8,18.0,30.23,NE,51,2.0,-999.0,88,-99.99,,,0.34,weatherlink.com 1.10,2013-04-23 14:54:00,
2013-04-23 09:10:00,21.9,19.0,30.23,NE,51,0.0,-999.0,87,-99.99,,,0.34,weatherlink.com 1.10,2013-04-23 15:10:00,
2013-04-23 09:25:00,22.6,19.0,30.22,NE,51,1.0,-999.0,85,-99.99,,,0.34,weatherlink.com 1.10,2013-04-23 15:25:00,
2013-04-23 09:40:00,23.5,20.0,30.23,ENE,71,3.0,-999.0,85,-99.99,,,0.34,weatherlink.com 1.10,2013-04-23 15:40:00,
2013-04-23 09:55:00,23.6,20.0,30.23,East,96,2.0,-999.0,84,-99.99,,,0.34,weatherlink.com 1.10,2013-04-23 15:55:00,
2013-04-23 10:10:00,24.0,20.0,30.23,East,79,4.0,-999.0,83,-99.99,,,0.34,weatherlink.com 1.10,2013-04-23 16:10:00,
2013-04-23 10:25:00,22.8,18.0,30.22,ENE,64,5.0,-999.0,81,-99.99,,,0.34,weatherlink.com 1.10,2013-04-23 16:25:00,
2013-04-23 10:40:00,22.4,18.0,30.22,ENE,74,2.0,-999.0,83,-99.99,,,0.34,weatherlink.com 1.10,2013-04-23 16:40:00,
2013-04-23 10:55:00,23.7,19.0,30.22,East,79,3.0,-999.0,81,-99.99,,,0.34,weatherlink.com 1.10,2013-04-23 16:55:00,
2013-04-23 11:09:00,24.7,20.0,30.22,SE,129,4.0,-999.0,82,-99.99,,,0.34,weatherlink.com 1.10,2013-04-23 17:09:00,
2013-04-23 11:24:00,25.0,19.0,30.21,SE,128,2.0,-999.0,79,-99.99,,,0.34,weatherlink.com 1.10,2013-04-23 17:24:00,
2013-04-23 11:39:00,25.7,20.0,30.21,SE,128,1.0,-999.0,78,-99.99,,,0.34,weatherlink.com 1.10,2013-04-23 17:39:00,
2013-04-23 11:54:00,26.2,20.0,30.20,SE,126,1.0,-999.0,77,-99.99,,,0.34,weatherlink.com 1.10,2013-04-23 17:54:00,
2013-04-23 12:10:00,25.8,19.0,30.20,East,92,2.0,-999.0,76,-99.99,,,0.34,weatherlink.com 1.10,2013-04-23 18:10:00,
2013-04-23 12:25:00,25.8,20.0,30.20,East,90,3.0,-999.0,77,-99.99,,,0.34,weatherlink.com 1.10,2013-04-23 18:25:00,
2013-04-23 12:40:00,26.1,20.0,30.19,ESE,105,2.0,-999.0,78,-99.99,,,0.34,weatherlink.com 1.10,2013-04-23 18:40:00,
2013-04-23 12:55:00,26.5,20.0,30.18,ESE,114,2.0,-999.0,77,-99.99,,,0.34,weatherlink.com 1.10,2013-04-23 18:55:00,
2013-04-23 13:10:00,26.8,21.0,30.17,ESE,117,2.0,-999.0,78,-99.99,,,0.34,weatherlink.com 1.10,2013-04-23 19:10:00,
2013-04-23 13:25:00,27.2,21.0,30.16,SSE,159,3.0,-999.0,76,-99.99,,,0.34,weatherlink.com 1.10,2013-04-23 19:25:00,
2013-04-23 13:40:00,27.1,21.0,30.16,SSE,157,5.0,-999.0,78,-99.99,,,0.34,weatherlink.com 1.10,2013-04-23 19:40:00,
2013-04-23 13:55:00,27.5,22.0,30.16,South,172,3.0,-999.0,79,-99.99,,,0.34,weatherlink.com 1.10,2013-04-23 19:55:00,
2013-04-23 14:09:00,28.0,21.0,30.16,SSE,158,5.0,-999.0,76,-99.99,,,0.34,weatherlink.com 1.10,2013-04-23 20:09:00,
2013-04-23 14:24:00,27.8,22.0,30.16,SSE,159,2.0,-999.0,78,-99.99,,,0.34,weatherlink.com 1.10,2013-04-23 20:24:00,
2013-04-23 14:40:00,29.2,23.0,30.16,SSE,160,4.0,-999.0,77,-99.99,,,0.34,weatherlink.com 1.10,2013-04-23 20:40:00,
2013-04-23 14:55:00,28.5,22.0,30.16,South,169,4.0,-999.0,75,-99.99,,,0.34,weatherlink.com 1.10,2013-04-23 20:55:00,
2013-04-23 15:09:00,27.8,21.0,30.16,SE,142,4.0,-999.0,76,-99.99,,,0.34,weatherlink.com 1.10,2013-04-23 21:09:00,
2013-04-23 15:24:00,28.8,22.0,30.15,South,179,3.0,-999.0,75,-99.99,,,0.34,weatherlink.com 1.10,2013-04-23 21:24:00,
2013-04-23 15:40:00,29.7,22.0,30.14,South,185,2.0,-999.0,73,-99.99,,,0.34,weatherlink.com 1.10,2013-04-23 21:40:00,
2013-04-23 15:55:00,29.5,22.0,30.14,SSE,154,4.0,-999.0,72,-99.99,,,0.34,weatherlink.com 1.10,2013-04-23 21:55:00,
2013-04-23 16:09:00,29.3,22.0,30.14,SSE,160,2.0,-999.0,73,-99.99,,,0.34,weatherlink.com 1.10,2013-04-23 22:09:00,
2013-04-23 16:24:00,29.8,22.0,30.14,South,178,4.0,-999.0,73,-99.99,,,0.34,weatherlink.com 1.10,2013-04-23 22:24:00,
2013-04-23 16:40:00,30.3,22.0,30.13,South,173,2.0,-999.0,71,-99.99,,,0.34,weatherlink.com 1.10,2013-04-23 22:40:00,
2013-04-23 16:55:00,30.5,22.0,30.13,South,178,3.0,-999.0,70,-99.99,,,0.34,weatherlink.com 1.10,2013-04-23 22:55:00,
2013-04-23 17:10:00,30.5,21.0,30.14,South,169,5.0,-999.0,68,-99.99,,,0.34,weatherlink.com 1.10,2013-04-23 23:10:00,
2013-04-23 17:25:00,31.2,21.0,30.14,South,169,4.0,-999.0,66,-99.99,,,0.34,weatherlink.com 1.10,2013-04-23 23:25:00,
2013-04-23 17:40:00,30.8,21.0,30.13,SSE,164,3.0,-999.0,68,-99.99,,,0.34,weatherlink.com 1.10,2013-04-23 23:40:00,
2013-04-23 17:55:00,30.6,20.0,30.14,SSE,162,3.0,-999.0,66,-99.99,,,0.34,weatherlink.com 1.10,2013-04-23 23:55:00,
2013-04-23 18:10:00,31.0,21.0,30.14,SSE,162,1.0,-999.0,66,-99.99,,,0.34,weatherlink.com 1.10,2013-04-24 00:10:00,
2013-04-23 18:25:00,31.2,21.0,30.14,South,186,5.0,-999.0,65,-99.99,,,0.34,weatherlink.com 1.10,2013-04-24 00:25:00,
2013-04-23 18:40:00,31.1,21.0,30.14,South,186,1.0,-999.0,67,-99.99,,,0.34,weatherlink.com 1.10,2013-04-24 00:40:00,
2013-04-23 18:55:00,31.6,21.0,30.14,South,186,1.0,-999.0,65,-99.99,,,0.34,weatherlink.com 1.10,2013-04-24 00:55:00,
2013-04-23 19:09:00,30.6,20.0,30.14,South,186,0.0,-999.0,66,-99.99,,,0.34,weatherlink.com 1.10,2013-04-24 01:09:00,
2013-04-23 19:24:00,29.9,19.0,30.15,South,186,2.0,-999.0,64,-99.99,,,0.34,weatherlink.com 1.10,2013-04-24 01:24:00,
2013-04-23 19:40:00,28.1,20.0,30.14,SW,236,5.0,-999.0,71,-99.99,,,0.34,weatherlink.com 1.10,2013-04-24 01:40:00,
2013-04-23 19:55:00,27.3,19.0,30.15,WSW,250,6.0,-999.0,72,-99.99,,,0.34,weatherlink.com 1.10,2013-04-24 01:55:00,
2013-04-23 20:25:00,26.3,20.0,30.16,WSW,244,5.0,-999.0,76,-99.99,,,0.34,weatherlink.com 1.10,2013-04-24 02:25:00,
2013-04-23 20:39:00,25.1,19.0,30.16,WSW,238,5.0,-999.0,77,-99.99,,,0.34,weatherlink.com 1.10,2013-04-24 02:39:00,
2013-04-23 20:54:00,25.0,19.0,30.16,West,261,6.0,-999.0,79,-99.99,,,0.34,weatherlink.com 1.10,2013-04-24 02:54:00,
2013-04-23 21:09:00,25.4,19.0,30.16,WSW,241,6.0,-999.0,78,-99.99,,,0.34,weatherlink.com 1.10,2013-04-24 03:09:00,
2013-04-23 21:24:00,24.8,19.0,30.17,West,263,4.0,-999.0,78,-99.99,,,0.34,weatherlink.com 1.10,2013-04-24 03:24:00,
2013-04-23 21:39:00,24.9,19.0,30.18,West,262,7.0,-999.0,78,-99.99,,,0.34,weatherlink.com 1.10,2013-04-24 03:39:00,
2013-04-23 21:54:00,24.4,18.0,30.18,WNW,282,6.0,-999.0,77,-99.99,,,0.34,weatherlink.com 1.10,2013-04-24 03:54:00,
2013-04-23 22:09:00,24.4,18.0,30.18,WSW,252,7.0,-999.0,78,-99.99,,,0.34,weatherlink.com 1.10,2013-04-24 04:09:00,
2013-04-23 22:24:00,24.5,19.0,30.18,WSW,254,9.0,-999.0,78,-99.99,,,0.34,weatherlink.com 1.10,2013-04-24 04:24:00,
2013-04-23 22:40:00,24.7,18.0,30.17,West,273,7.0,-999.0,77,-99.99,,,0.34,weatherlink.com 1.10,2013-04-24 04:40:00,
2013-04-23 22:55:00,24.4,18.0,30.16,WSW,240,11.0,-999.0,76,-99.99,,,0.34,weatherlink.com 1.10,2013-04-24 04:55:00,
2013-04-23 23:09:00,24.5,18.0,30.16,WSW,240,7.0,-999.0,75,-99.99,,,0.34,weatherlink.com 1.10,2013-04-24 05:09:00,
2013-04-23 23:24:00,23.8,17.0,30.15,WSW,253,6.0,-999.0,76,-99.99,,,0.34,weatherlink.com 1.10,2013-04-24 05:24:00,
2013-04-23 23:40:00,23.4,17.0,30.15,WSW,250,4.0,-999.0,77,-99.99,,,0.34,weatherlink.com 1.10,2013-04-24 05:40:00,
2013-04-23 23:55:00,23.1,17.0,30.15,West,269,3.0,-999.0,77,-99.99,,,0.34,weatherlink.com 1.10,2013-04-24 05:55:00,